Погода в Арефине

Россия / Владимирская область     56°10′22″N   42°38′26″E
темп.,
°C
ветер,
м/с
пор.,
м/с
влажн.,
%
обл.,
%
осадки,
мм/ч
давл.,
гПа
погр.,
м
25 июля, вс
вс2500:00+14ююз1164100 0.0 101711
03:00+14з1166100 0.0 101810
06:00+14з126731 0.0 101981
09:00+19зюз22427 0.0 1020811
12:00+21з333246 0.0 10202555
15:00+23зсз342981 0.0 10192778
18:00+21зсз353831 0.0 1020811
21:00+15з1155100 0.0 102111
26 июля, пн
пн2600:00+16юз2355100 0.0 102158
03:00+15з2462100 0.0 102278
06:00+15зюз2264100 0.0 102267
09:00+19з245265 0.0 1023408
12:00+21зюз36479 0.0 1023859
15:00+23з354486 0.0 1021947
18:00+23з464218 0.0 1021746
21:00+19зюз385683 0.0 1021199
27 июля, вт
вт2700:00+16зюз376720 0.0 1021110
03:00+15з267519 0.0 1021107
06:00+17зсз38725 0.0 1021259
09:00+22ссз47505 0.0 1020878
12:00+26ссз47358 0.0 10202342
15:00+26ссз573599 0.0 10192774
18:00+23ссз3548100 0.0 1019691
21:00+16зсз2591100 0.8 1020128
28 июля, ср
ср2800:00+15зюз22935 0.0 101915
03:00+14з01935 0.0 101911
06:00+16ю12870 0.0 101864
09:00+22ююз23575 0.0 1017544
12:00+27юз34406 0.0 10151635
15:00+29зюз353291 0.0 10123136
18:00+23ююз225099 0.1 101161
21:00+19зсз2268100 0.1 101021
29 июля, чт
чт2900:00+16з4992100 0.1 1010241
03:00+15юз249776 1.1 100998
06:00+17ю14906 0.1 1008154
09:00+21ююз127254 0.1 1008790
12:00+26вюв234986 0.0 10071617
15:00+25ю1152100 0.0 1006730
18:00+25з125163 0.0 1006522
21:00+19з22755 0.0 100712